Friday Harbor, WA
on Friday, January 18, 2013

Friday
Previous Day Next Day
Daily Summary
 ActualAverageRecord
Temperature
Mean Temperature °F °F  
Max Temperature 41°F 44°F 54°F (2005)
Min Temperature 33°F 36°F 19°F (2012)
Degree Days
Heating Degree Days 28    
Moisture
Dew Point 35°F   
Average Humidity 93    
Maximum Humidity 100    
Minimum Humidity 82    
Precipitation
Precipitation 0.00 in in in ()
Wind
Wind Speed 1 mph   
Max Wind Speed 6 mph   
Max Gust Speed mph   
Visibility 6 miles   
Events Fog   
Averages and records for this station are not official NWS values.
Key: T is trace of precipitation, MM is missing value
Source: NWS Daily Summary
Seasonal Weather Averages
Time(PST)TemperatureDew PointHumidity Pressure Visibility Wind DirectionWind SpeedGust SpeedPrecipitationEvents Conditions
12:53 AM 35.1°F 34.0°F 96% 30.30 in 0.2 miles Calm Calm - N/A Fog Fog
1:53 AM 35.1°F 35.1°F 100% 30.31 in 0.5 miles Calm Calm - N/A Fog Fog
2:53 AM 35.1°F 35.1°F 100% 30.30 in 0.5 miles Calm Calm - N/A Fog Fog
3:53 AM 35.1°F 34.0°F 96% 30.30 in 0.8 miles Calm Calm - N/A   Mist
4:31 AM 33.8°F 33.8°F 100% 30.29 in 1.0 miles Calm Calm - N/A   Mist
4:53 AM 35.1°F 34.0°F 96% 30.30 in 1.0 miles Calm Calm - N/A   Overcast
5:31 AM 35.6°F 33.8°F 93% 30.29 in 2.5 miles SW 3.5 mph - N/A   Overcast
5:49 AM 33.8°F 33.8°F 100% 30.29 in 3.0 miles Calm Calm - N/A   Overcast
5:53 AM 34.0°F 34.0°F 100% 30.29 in 3.0 miles Calm Calm - N/A   Overcast
6:44 AM 35.6°F 33.8°F 93% 30.28 in 1.8 miles Calm Calm - N/A   Overcast
6:53 AM 35.1°F 34.0°F 96% 30.29 in 1.8 miles Calm Calm - N/A   Overcast
7:03 AM 35.6°F 33.8°F 93% 30.28 in 2.5 miles Calm Calm - N/A   Overcast
7:10 AM 35.6°F 33.8°F 93% 30.28 in 6.0 miles NNE 3.5 mph - N/A   Overcast
7:53 AM 35.1°F 34.0°F 96% 30.30 in 9.0 miles Calm Calm - N/A   Overcast
8:53 AM 36.0°F 35.1°F 97% 30.32 in 8.0 miles Calm Calm - N/A   Overcast
9:15 AM 37.4°F 35.6°F 93% 30.31 in 9.0 miles Calm Calm - N/A   Overcast
9:53 AM 37.9°F 36.0°F 93% 30.33 in 10.0 miles Calm Calm - N/A   Overcast
10:53 AM 39.0°F 36.0°F 89% 30.33 in 10.0 miles Calm Calm - N/A   Overcast
11:53 AM 39.9°F 36.0°F 86% 30.34 in 9.0 miles North 5.8 mph - N/A   Overcast
12:53 PM 41.0°F 36.0°F 82% 30.32 in 8.0 miles Calm Calm - N/A   Mostly Cloudy
1:53 PM 41.0°F 36.0°F 82% 30.32 in 7.0 miles North 3.5 mph - N/A   Overcast
2:53 PM 39.9°F 35.1°F 83% 30.32 in 8.0 miles North 4.6 mph - N/A   Overcast
3:53 PM 39.9°F 35.1°F 83% 30.34 in 9.0 miles North 3.5 mph - N/A   Overcast
4:53 PM 39.0°F 34.0°F 82% 30.33 in 10.0 miles Calm Calm - N/A   Overcast
5:53 PM 37.9°F 34.0°F 86% 30.32 in 10.0 miles Calm Calm - N/A   Overcast
6:53 PM 36.0°F 34.0°F 93% 30.33 in 10.0 miles Calm Calm - N/A   Overcast
7:53 PM 37.0°F 35.1°F 93% 30.33 in 10.0 miles Calm Calm - N/A   Overcast
8:53 PM 35.1°F 34.0°F 96% 30.35 in 10.0 miles Calm Calm - N/A   Mostly Cloudy
9:53 PM 34.0°F 33.1°F 96% 30.36 in 9.0 miles Calm Calm - N/A   Overcast
10:53 PM 35.1°F 35.1°F 100% 30.36 in 8.0 miles Calm Calm - N/A   Overcast
11:53 PM 36.0°F 35.1°F 97% 30.37 in 8.0 miles Calm Calm - N/A   Unknown
Moon Phase
Jan. 18 Jan. 18 Jan. 26 Feb. 03 Feb. 10
Sunrise:07:56 AM (PST) Moon Rise:10:56 AM (PST)1/18
Sunset:04:49 PM (PST) Moon Set:12:24 AM (PST)1/18

Copyright © 2014 The Weather Underground, Inc.